Tiempo cada hora Bartodzieje

Hoy, 7 Marzo, Domingo

Tiempo Temperatura Precipitaciones Viento Presión Humedad
00:00 -2°C° 0 mm 4 mps 763 mmHg 85%
01:00 -2°C° 0 mm 5 mps 762 mmHg 84%
02:00 -2°C° 0 mm 5 mps 762 mmHg 84%
03:00 -1°C° 0 mm 5 mps 761 mmHg 84%
04:00 -1°C° 0 mm 5 mps 761 mmHg 84%
05:00 -1°C° 0 mm 5 mps 760 mmHg 84%
06:00 -1°C° 0 mm 5 mps 760 mmHg 83%
07:00 -1°C° 0 mm 6 mps 760 mmHg 84%
08:00 -1°C° 0 mm 6 mps 760 mmHg 79%
09:00 +1°C° 0 mm 6 mps 759 mmHg 75%
10:00 0°C° 0 mm 7 mps 759 mmHg 71%
11:00 0°C° 0 mm 7 mps 758 mmHg 70%
12:00 0°C° 0 mm 7 mps 758 mmHg 69%
13:00 0°C° 0 mm 7 mps 758 mmHg 69%
14:00 +1°C° 0 mm 6 mps 757 mmHg 69%
15:00 +1°C° 0 mm 6 mps 757 mmHg 69%
16:00 +1°C° 0 mm 6 mps 756 mmHg 69%
17:00 0°C° 0 mm 5 mps 756 mmHg 73%
18:00 -1°C° 0 mm 5 mps 756 mmHg 77%
19:00 -1°C° 0 mm 4 mps 756 mmHg 80%
20:00 -2°C° 0 mm 4 mps 756 mmHg 81%
21:00 -2°C° 0 mm 5 mps 756 mmHg 82%
22:00 -2°C° 0 mm 5 mps 756 mmHg 82%
23:00 -2°C° 0.1 mm 5 mps 756 mmHg 86%

Mañana, 8 Marzo, Lunes

Tiempo Temperatura Precipitaciones Viento Presión Humedad
00:00 -2°C° 0.1 mm 5 mps 756 mmHg 89%
01:00 -1°C° 0.1 mm 5 mps 756 mmHg 93%
02:00 -2°C° 0.2 mm 4 mps 756 mmHg 92%
03:00 -2°C° 0.2 mm 3 mps 756 mmHg 91%
04:00 -3°C° 0.2 mm 2 mps 756 mmHg 90%
05:00 -3°C° 0 mm 2 mps 757 mmHg 88%
06:00 -3°C° 0 mm 2 mps 757 mmHg 87%
07:00 -3°C° 0 mm 2 mps 758 mmHg 85%
08:00 -2°C° 0 mm 2 mps 758 mmHg 72%
09:00 +1°C° 0 mm 2 mps 758 mmHg 59%
10:00 +2°C° 0 mm 2 mps 759 mmHg 47%
11:00 +3°C° 0 mm 2 mps 759 mmHg 44%
12:00 +3°C° 0 mm 2 mps 759 mmHg 42%
13:00 +4°C° 0 mm 2 mps 759 mmHg 40%
14:00 +4°C° 0 mm 2 mps 759 mmHg 41%
15:00 +4°C° 0 mm 2 mps 759 mmHg 43%
16:00 +4°C° 0 mm 2 mps 759 mmHg 44%
17:00 +2°C° 0 mm 2 mps 759 mmHg 49%
18:00 +2°C° 0 mm 1 mps 759 mmHg 55%
19:00 +1°C° 0 mm 1 mps 759 mmHg 60%
20:00 +1°C° 0 mm 1 mps 759 mmHg 61%
21:00 -1°C° 0 mm 0 mps 759 mmHg 62%
22:00 -1°C° 0 mm 0 mps 760 mmHg 64%
23:00 -1°C° 0 mm 0 mps 759 mmHg 64%

Pasado mañana, 9 Marzo, Martes

Tiempo Temperatura Precipitaciones Viento Presión Humedad
00:00 -1°C° 0 mm 0 mps 759 mmHg 65%
01:00 -1°C° 0 mm 0 mps 759 mmHg 66%
02:00 -1°C° 0 mm 0 mps 759 mmHg 65%
03:00 -1°C° 0 mm 0 mps 759 mmHg 65%
04:00 -1°C° 0 mm 0 mps 758 mmHg 65%
05:00 -1°C° 0 mm 0 mps 758 mmHg 64%
06:00 0°C° 0 mm 1 mps 758 mmHg 62%
07:00 0°C° 0 mm 1 mps 758 mmHg 61%
08:00 +1°C° 0 mm 1 mps 758 mmHg 57%
09:00 +2°C° 0 mm 1 mps 758 mmHg 52%
10:00 +2°C° 0 mm 2 mps 758 mmHg 47%
11:00 +3°C° 0 mm 2 mps 758 mmHg 44%
12:00 +4°C° 0 mm 2 mps 758 mmHg 42%
13:00 +4°C° 0 mm 2 mps 758 mmHg 39%
14:00 +5°C° 0 mm 1 mps 757 mmHg 40%
15:00 +5°C° 0 mm 1 mps 757 mmHg 41%
16:00 +5°C° 0 mm 1 mps 757 mmHg 42%
17:00 +4°C° 0 mm 1 mps 757 mmHg 47%
18:00 +2°C° 0 mm 2 mps 757 mmHg 52%
19:00 +1°C° 0 mm 2 mps 757 mmHg 56%
20:00 -1°C° 0 mm 2 mps 758 mmHg 60%
21:00 +1°C° 0 mm 1 mps 758 mmHg 63%
22:00 0°C° 0 mm 1 mps 758 mmHg 66%
23:00 0°C° 0 mm 1 mps 758 mmHg 69%

10 Marzo, Miércoles

Tiempo Temperatura Precipitaciones Viento Presión Humedad
00:00 0°C° 0 mm 1 mps 758 mmHg 71%
01:00 0°C° 0 mm 1 mps 758 mmHg 73%
02:00 -1°C° 0 mm 1 mps 758 mmHg 74%
03:00 -2°C° 0 mm 0 mps 758 mmHg 76%
04:00 -2°C° 0 mm 0 mps 758 mmHg 77%
05:00 -2°C° 0 mm 0 mps 758 mmHg 75%
06:00 -1°C° 0 mm 0 mps 759 mmHg 72%
07:00 -1°C° 0 mm 0 mps 759 mmHg 70%
08:00 +1°C° 0 mm 1 mps 759 mmHg 63%
09:00 +3°C° 0 mm 1 mps 759 mmHg 56%
10:00 +4°C° 0 mm 1 mps 759 mmHg 49%
11:00 +5°C° 0 mm 1 mps 759 mmHg 46%
12:00 +6°C° 0 mm 1 mps 759 mmHg 43%
13:00 +6°C° 0 mm 1 mps 759 mmHg 40%
14:00 +6°C° 0 mm 1 mps 759 mmHg 41%
15:00 +6°C° 0 mm 1 mps 759 mmHg 41%
16:00 +6°C° 0 mm 1 mps 758 mmHg 42%
17:00 +4°C° 0 mm 2 mps 758 mmHg 48%
18:00 +2°C° 0 mm 2 mps 759 mmHg 53%
19:00 +1°C° 0 mm 2 mps 759 mmHg 59%
20:00 0°C° 0 mm 3 mps 758 mmHg 61%
21:00 -1°C° 0 mm 3 mps 758 mmHg 64%
22:00 -1°C° 0 mm 3 mps 758 mmHg 67%
23:00 -1°C° 0 mm 3 mps 758 mmHg 69%

11 Marzo, Jueves

Tiempo Temperatura Precipitaciones Viento Presión Humedad
00:00 -2°C° 0 mm 4 mps 757 mmHg 70%
01:00 -2°C° 0 mm 4 mps 756 mmHg 72%
02:00 -1°C° 0 mm 4 mps 755 mmHg 73%
03:00 -1°C° 0 mm 4 mps 754 mmHg 73%
04:00 -1°C° 0 mm 5 mps 753 mmHg 74%
05:00 0°C° 0 mm 5 mps 753 mmHg 73%
06:00 +1°C° 0 mm 5 mps 752 mmHg 73%
07:00 +1°C° 0 mm 5 mps 751 mmHg 72%
08:00 +2°C° 0.6 mm 5 mps 751 mmHg 77%
09:00 +2°C° 0.6 mm 5 mps 750 mmHg 82%
10:00 +2°C° 0.6 mm 5 mps 749 mmHg 86%
11:00 +3°C° 0.4 mm 5 mps 749 mmHg 86%
12:00 +4°C° 0.4 mm 4 mps 748 mmHg 86%
13:00 +5°C° 0.4 mm 4 mps 747 mmHg 87%
14:00 +6°C° 0.4 mm 4 mps 747 mmHg 87%
15:00 +6°C° 0.4 mm 4 mps 746 mmHg 88%
16:00 +7°C° 0.4 mm 5 mps 746 mmHg 89%
17:00 +7°C° 0.2 mm 5 mps 746 mmHg 88%
18:00 +7°C° 0.2 mm 6 mps 745 mmHg 86%
19:00 +8°C° 0.2 mm 6 mps 745 mmHg 85%
20:00 +7°C° 0.3 mm 6 mps 746 mmHg 83%
21:00 +7°C° 0.3 mm 6 mps 746 mmHg 81%
22:00 +5°C° 0.3 mm 6 mps 746 mmHg 80%
23:00 +6°C° 0 mm 5 mps 747 mmHg 80%

12 Marzo, Viernes

Tiempo Temperatura Precipitaciones Viento Presión Humedad
00:00 +6°C° 0 mm 5 mps 747 mmHg 80%
01:00 +5°C° 0 mm 5 mps 747 mmHg 80%
02:00 +4°C° 0 mm 6 mps 747 mmHg 81%
03:00 +4°C° 0 mm 6 mps 747 mmHg 81%
04:00 +3°C° 0 mm 6 mps 747 mmHg 82%
05:00 +3°C° 0 mm 7 mps 747 mmHg 80%
06:00 +3°C° 0 mm 7 mps 748 mmHg 79%
07:00 +2°C° 0 mm 8 mps 748 mmHg 77%
08:00 +4°C° 0 mm 8 mps 749 mmHg 72%
09:00 +5°C° 0 mm 9 mps 750 mmHg 67%
10:00 +6°C° 0 mm 9 mps 750 mmHg 62%
11:00 +6°C° 0 mm 9 mps 750 mmHg 58%
12:00 +7°C° 0 mm 9 mps 750 mmHg 55%
13:00 +8°C° 0 mm 9 mps 751 mmHg 51%
14:00 +7°C° 0 mm 8 mps 750 mmHg 51%
15:00 +7°C° 0 mm 8 mps 750 mmHg 52%
16:00 +8°C° 0 mm 7 mps 750 mmHg 52%
17:00 +7°C° 0 mm 6 mps 750 mmHg 57%
18:00 +6°C° 0 mm 5 mps 751 mmHg 62%
19:00 +5°C° 0 mm 4 mps 751 mmHg 66%
20:00 +5°C° 0 mm 4 mps 751 mmHg 68%
21:00 +3°C° 0 mm 5 mps 751 mmHg 69%
22:00 +3°C° 0 mm 5 mps 751 mmHg 71%
23:00 +3°C° 0 mm 5 mps 751 mmHg 72%
Mostrar más

Necesitamos Su Consentimiento

Meteoprog y nuestros Proveedores de Servicios pueden almacenar y acceder a sus datos personales como cookies, identificadores de dispositivo u otras tecnologías similares de su dispositivo y procesar dichos datos para personalizar contenido y anuncios, además de ofrecer funciones de redes sociales y analizar el tráfico.

  • Almacenar y/o acceder a información en su dispositivo

    Se puede almacenar o acceder a cookies, identificadores de dispositivo u otra información de su dispositivo para los fines anteriormente indicados.

  • Anuncios y contenido personalizados, medición de anuncios y contenido, percepciones del público, y desarrollo de productos

    Los anuncios y el contenido pueden personalizarse en base a su perfil. Se pueden añadir más datos para personalizar mejor los anuncios y contenidos. Se puede medir el rendimiento de los anuncios y contenidos. Se puede obtener la percepción sobre el público que ha visto los anuncios y contenidos. Dichos datos pueden usarse para desarrollar o mejorar la experiencia del usuario, sistemas y software.

Al hacer clic en ‘Estoy De Acuerdo’ usted permitirá el uso de las cookies, identificadores de dispositivo, balizas web u otras tecnologías similares indicadas. Su configuración puede cambiarse desde el navegador de su dispositivo.

Para ciertos fines, los intereses legítimos pueden ser considerados por encima del consentimiento. Puede leer más sobre ello en nuestra Política de Privacidad y Cookies.